Weather History for KSZL - September, 2012

Change the Weather History Date:

Friday, September 28, 2012

  Actual Average Record
Temperature  
Mean Temperature 65 °F -  
Max Temperature 73 °F 73 °F 91 °F (2002)
Min Temperature 55 °F 50 °F 42 °F (1996)
Growing Degree Days 15 (Base 50)    
Moisture  
Dew Point 59 °F    
Average Humidity 87    
Maximum Humidity 100    
Minimum Humidity 44    
Precipitation  
Precipitation 0.00 in - - ()
Sea Level Pressure  
Sea Level Pressure 30.13 in    
Wind  
Wind Speed 6 mph (ENE)    
Max Wind Speed 10 mph    
Max Gust Speed -    
Visibility 9 miles    
Events      
Averages and records for this station are not official NWS values.
T = Trace of Precipitation, MM = Missing Value Source: NWS Daily Summary

Daily Weather History Graph

Daily Weather History Graph

Search for Another Location

Airport or City:

Trip Planner

Search our weather history database for the weather conditions in past years. The results will help you decide how hot, cold, wet, or windy it might be!

Date:

Astronomy

Sep. 28, 2012 Rise Set
Actual Time 7:07 AM CDT 7:00 PM CDT
Civil Twilight 6:41 AM CDT 7:27 PM CDT
Nautical Twilight 6:10 AM CDT 7:58 PM CDT
Astronomical Twilight 5:39 AM CDT 8:29 PM CDT
Moon 6:03 PM CDT (9/28) 5:39 AM CDT (9/28)
Length of Visible Light 12h 46m
Length of Day
11h 53m
Waxing Gibbous, 98% of the Moon is Illuminated
Sep 28
Waxing Gibbous
Sep 29
Full
Oct 8
Last Quarter
Oct 15
New
Oct 21
First Quarter

Hourly Weather History & Observations

Time (CDT) Temp. Dew Point Humidity Pressure Visibility Wind Dir Wind Speed Gust Speed Precip Events Conditions
12:03 AM 64.4 °F 64.4 °F 100% 30.13 in 9.0 mi ENE 4.6 mph - N/A   Overcast
12:16 AM 64.4 °F 64.4 °F 100% 30.12 in 9.0 mi ENE 8.1 mph - N/A   Mostly Cloudy
12:21 AM 64.4 °F 64.4 °F 100% 30.12 in 9.0 mi ENE 6.9 mph - N/A   Scattered Clouds
12:28 AM 64.4 °F 64.4 °F 100% 30.12 in 10.0 mi ENE 6.9 mph - N/A   Mostly Cloudy
12:34 AM 64.4 °F 64.4 °F 100% 30.12 in 9.0 mi ENE 8.1 mph - N/A   Mostly Cloudy
12:35 AM 64.4 °F 64.4 °F 100% 30.12 in 9.0 mi ENE 6.9 mph - N/A   Mostly Cloudy
12:55 AM 64.0 °F 64.0 °F 100% 30.12 in 9.0 mi Variable 4.6 mph - 0.00 in   Overcast
1:04 AM 64.4 °F 64.4 °F 100% 30.12 in 9.0 mi NE 5.8 mph - N/A   Overcast
1:21 AM 64.4 °F 64.4 °F 100% 30.12 in 8.0 mi East 5.8 mph - N/A   Overcast
1:55 AM 63.7 °F 63.7 °F 100% 30.12 in 8.0 mi ENE 5.8 mph - N/A   Overcast
2:25 AM 62.6 °F 62.6 °F 100% 30.11 in 7.0 mi East 3.5 mph - N/A   Overcast
2:42 AM 62.6 °F 62.6 °F 100% 30.11 in 7.0 mi ENE 3.5 mph - N/A   Overcast
2:55 AM 63.3 °F 63.3 °F 100% 30.11 in 7.0 mi ENE 3.5 mph - N/A   Overcast
3:02 AM 62.6 °F 62.6 °F 100% 30.11 in 7.0 mi NE 4.6 mph - N/A   Overcast
3:55 AM 63.1 °F 63.1 °F 100% 30.10 in 5.0 mi ENE 4.6 mph - N/A   Overcast
3:59 AM 62.6 °F 62.6 °F 100% 30.10 in 5.0 mi ENE 4.6 mph - N/A   Overcast
4:55 AM 62.8 °F 62.8 °F 100% 30.10 in 3.0 mi ENE 3.5 mph - N/A   Overcast
5:23 AM 62.6 °F 62.6 °F 100% 30.11 in 5.0 mi ENE 6.9 mph - N/A   Overcast
5:34 AM 62.6 °F 62.6 °F 100% 30.11 in 5.0 mi NE 5.8 mph - N/A   Overcast
5:55 AM 62.6 °F 62.6 °F 100% 30.12 in 7.0 mi ENE 5.8 mph - N/A   Overcast
6:13 AM 62.6 °F 62.6 °F 100% 30.12 in 8.0 mi ENE 5.8 mph - N/A   Overcast
6:20 AM 62.6 °F 62.6 °F 100% 30.12 in 8.0 mi NE 5.8 mph - N/A   Overcast
6:29 AM 62.6 °F 62.6 °F 100% 30.12 in 9.0 mi NE 6.9 mph - N/A   Overcast
6:44 AM 62.6 °F 62.6 °F 100% 30.13 in 9.0 mi NE 6.9 mph - N/A   Overcast
6:55 AM 61.7 °F 61.7 °F 100% 30.13 in 8.0 mi NE 9.2 mph - N/A   Overcast
7:18 AM 60.8 °F 60.8 °F 100% 30.14 in 8.0 mi NE 9.2 mph - N/A   Overcast
7:55 AM 61.0 °F 61.0 °F 100% 30.15 in 10.0 mi ENE 6.9 mph - N/A   Overcast
7:58 AM 60.8 °F 60.8 °F 100% 30.15 in 10.0 mi ENE 8.1 mph - N/A   Overcast
8:55 AM 61.0 °F 59.0 °F 93% 30.16 in 10.0 mi ENE 10.4 mph - N/A   Overcast
9:44 AM 62.6 °F 57.2 °F 82% 30.18 in 10.0 mi East 5.8 mph - N/A   Overcast
9:55 AM 62.1 °F 57.7 °F 86% 30.18 in 10.0 mi East 5.8 mph - N/A   Overcast
10:18 AM 62.6 °F 59.0 °F 88% 30.18 in 10.0 mi East 5.8 mph - N/A   Mostly Cloudy
10:55 AM 64.6 °F 58.5 °F 80% 30.18 in 10.0 mi East 6.9 mph - N/A   Mostly Cloudy
11:55 AM 68.4 °F 54.0 °F 60% 30.17 in 10.0 mi East 10.4 mph - N/A   Partly Cloudy
12:55 PM 68.9 °F 51.3 °F 53% 30.17 in 10.0 mi East 6.9 mph - N/A   Mostly Cloudy
1:55 PM 70.5 °F 53.2 °F 54% 30.15 in 10.0 mi ENE 10.4 mph - N/A   Scattered Clouds
2:55 PM 71.2 °F 50.9 °F 49% 30.12 in 10.0 mi East 10.4 mph - N/A   Partly Cloudy
3:55 PM 73.8 °F 50.5 °F 44% 30.11 in 10.0 mi ENE 3.5 mph - N/A   Clear
4:55 PM 71.1 °F 50.2 °F 48% 30.11 in 10.0 mi East 3.5 mph - N/A   Scattered Clouds
5:55 PM 69.8 °F 49.6 °F 49% 30.10 in 10.0 mi East 3.5 mph - N/A   Scattered Clouds
6:55 PM 65.7 °F 49.3 °F 55% 30.10 in 10.0 mi NE 4.6 mph - N/A   Partly Cloudy
7:55 PM 61.9 °F 50.4 °F 66% 30.10 in 10.0 mi ENE 3.5 mph - N/A   Partly Cloudy
8:55 PM 60.1 °F 49.1 °F 67% 30.12 in 10.0 mi Calm Calm - N/A   Clear
9:55 PM 57.7 °F 49.5 °F 74% 30.14 in 10.0 mi Calm Calm - N/A   Clear
10:55 PM 57.9 °F 48.9 °F 72% 30.15 in 10.0 mi Calm Calm - N/A   Clear
11:55 PM 55.2 °F 49.6 °F 81% 30.14 in 10.0 mi Calm Calm - N/A   Clear